Location: Bluejay Creek
(37.7819°N, 119.6118°W)
Time: 11:54:57
(UTC+00:00)

BlueWalker 3 - Pass Details

Date: 05 August 2024
Orbit: 475 x 487 km, 53.2° (Epoch: 15 September)

Event Time Altitude Azimuth Distance (km) Brightness Sun altitude
Exits shadow 12:08:47 12° 273° (W) 1,586 4.0 -10.9°
Maximum altitude 12:11:44 26° 328° (NNW) 1,005 3.5 -10.4°
Drops below altitude 10° 12:14:58 10° 27° (NNE) 1,690 5.6 -9.9°
Sets 12:17:25 0° 40° (NE) 2,575 7.1 -9.4°
